This is the latest recevied weather packets stored in our database for station/object YO2LDK-13. If no packets are shown the sender has not sent any weather packets the latest 10 day(s).
| Time | Temp. | Humidity | Pressure | Rain* | Wind** | Luminosity | Snow |
|---|---|---|---|---|---|---|---|
| 1777875020 | 14.44° C | 51% | 1009.5 hPa | 0 mm | - | 334 W/m² | - |
| 1777874722 | 13.89° C | 52% | 1009.5 hPa | 0 mm | - | 36 W/m² | - |
| 1777874419 | 13.33° C | 54% | 1009.5 hPa | 0 mm | - | 35 W/m² | - |
| 1777874120 | 12.78° C | 56% | 1009.5 hPa | 0 mm | - | 35 W/m² | - |
| 1777873819 | 12.78° C | 58% | 1009.5 hPa | 0 mm | - | 33 W/m² | - |
| 1777873520 | 12.22° C | 59% | 1009.8 hPa | 0 mm | - | 33 W/m² | - |
| 1777873219 | 11.67° C | 61% | 1009.5 hPa | 0 mm | - | 32 W/m² | - |
| 1777872919 | 11.11° C | 62% | 1009.5 hPa | 0 mm | - | 32 W/m² | - |
| 1777872619 | 10.56° C | 62% | 1009.5 hPa | 0 mm | - | 30 W/m² | - |
| 1777872321 | 10.56° C | 64% | 1009.5 hPa | 0 mm | - | 29 W/m² | - |
| 1777872019 | 10° C | 66% | 1009.5 hPa | 0 mm | - | 30 W/m² | - |
| 1777871719 | 9.44° C | 66% | 1009.5 hPa | 0 mm | - | 27 W/m² | - |
| 1777871420 | 8.89° C | 68% | 1009.5 hPa | 0 mm | - | 27 W/m² | - |
| 1777871119 | 8.33° C | 68% | 1009.5 hPa | 0 mm | - | 26 W/m² | - |
| 1777870819 | 7.78° C | 69% | 1009.8 hPa | 0 mm | - | 25 W/m² | - |
| 1777870521 | 7.22° C | 71% | 1009.8 hPa | 0 mm | - | 23 W/m² | - |
| 1777870219 | 6.67° C | 72% | 1009.8 hPa | 0 mm | - | 22 W/m² | - |
| 1777869921 | 6.67° C | 73% | 1009.5 hPa | 0 mm | - | 22 W/m² | - |
| 1777869619 | 6.11° C | 73% | 1009.5 hPa | 0 mm | - | 20 W/m² | - |
| 1777869319 | 5.56° C | 74% | 1009.5 hPa | 0 mm | - | 19 W/m² | - |
| 1777869021 | 5° C | 76% | 1009.1 hPa | 0 mm | - | 18 W/m² | - |
| 1777868724 | 5° C | 77% | 1009.1 hPa | 0 mm | - | 17 W/m² | - |
| 1777868420 | 4.44° C | 75% | 1009.1 hPa | 0 mm | - | 16 W/m² | - |
| 1777868119 | 4.44° C | 79% | 1009.5 hPa | 0 mm | - | 15 W/m² | - |
| 1777867820 | 4.44° C | 79% | 1009.5 hPa | 0 mm | - | 13 W/m² | - |
* Rain latest hour (hover to see other rain measurements)
** Current wind speed in m/s (hover to see current wind gust speed)